Regional Weather Roundup
Issued by NWS New Orleans/Baton Rouge, LA

Home | Current Version | Previous Version | Graphics & Text | Print | Product List | Glossary On
Versions: 1 2 3 4 5 6 7 8 9 10 11 12 13 14 15 16 17 18 19 20 21 22 23 24 25 26 27 28 29 30 31 32 33 34 35 36 37 38 39 40 41 42 43 44 45 46 47 48 49 50
593
ASUS44 KLIX 231101
RWRLIX
NEW ORLEANS REGIONAL WEATHER ROUNDUP
NATIONAL WEATHER SERVICE NEW ORLEANS LA
600 AM CDT THU OCT 23 2014

NOTE: "FAIR" INDICATES FEW OR NO CLOUDS BELOW 12,000 FEET WITH NO
      SIGNIFICANT WEATHER AND/OR OBSTRUCTIONS TO VISIBILITY.
      SKY/WX - SKY CONDITION AND SIGNIFICANT WEATHER.
      TMP - AIR TEMPERATURE.     DP    - DEWPOINT TEMPERATURE.
      RH  - RELATIVE HUMIDITY.   PRES  - PRESSURE.
      HI  - HEAT INDEX.          WCI   - WIND CHILL INDEX.

*  THESE STATIONS ARE NOT NWS OR FAA STATIONS AND ARE NOT UNDER
   NWS QUALITY CONTROL.

LAZ038-040-048-061>063-065>067-069-231200-
SOUTHEAST LOUISIANA

CITY           SKY/WX    TMP DP  RH WIND       PRES   REMARKS
N.O. AUDUBON     N/A     58  49  69 MISG        N/A
N.O. INTL ARPT CLEAR     63  50  62 E6        30.06R
N.O. LAKEFRONT LGT RAIN  63  50  62 E17       30.07R
N.O. DOWNTOWN*   N/A     61  45  55 NE6       30.07R
SLIDELL        CLEAR     48  44  86 CALM      30.07R
BATON ROUGE    CLEAR     51  46  83 CALM      30.09R
BOOTHVILLE     CLEAR     69  56  62 NE9       30.04R
BELLE CHASSE   CLEAR     58  50  75 NE7       30.06R
BOGALUSA*        N/A     46  42  89 CALM      30.10R
NEW ROADS*       N/A     52  47  83 NE3       30.09F
GONZALES*        N/A     53  50  90 N3        30.08R
HAMMOND*       NOT AVBL
HOUMA*         CLEAR     55  49  82 NE5       30.06R
PORT FOURCHON* SUNNY     68  61  77 NE12      30.07R

$$

MSZ070-080>082-231200-
SOUTHERN MISSISSIPPI

CITY           SKY/WX    TMP DP  RH WIND       PRES   REMARKS
MCCOMB         CLEAR     50  44  80 N6        30.10R
GULFPORT       CLEAR     51  44  77 NE7       30.07S
BILOXI         CLEAR     51  45  81 NE9       30.07S
PASCAGOULA     CLEAR     45  42  89 N5        30.08R

$$

COASTAL OBSERVATIONS
LAKE AND NEARSHORE STATIONS

STATION/POSITION TIME  TEMP    WIND        PRES    WAVE
                       AIR SEA DIR/SP/G            HT/PER
                 (UTC) (F)     (DEG/KT/KT) (MB)    (FT/S)
PASCAGOULA       1000   54      30/  9/ 13 1017.6
WAVELAND YACHT   1000   57      50/ 12/ 13 1017.0
GRAND ISLE       1000   68 74   50/  8/ 12 1017.5
SOUTHWEST PASS   1000   70 81              1016.6
NEW CANAL        1000   65 70   70/ 17/ 19 1018.0
SHELL BEACH      1000   66 67   50/ 16/ 18 1017.3

OFFSHORE STATIONS

STATION/POSITION TIME  TEMP    WIND        PRES    WAVE
                       AIR SEA DIR/SP/G            HT/PER
                 (UTC) (F)     (DEG/KT/KT) (MB)    (FT/S)
64 S DAUPHIN ISL 0956   72 78   60/ 16/ 17 1017.1    4/ 5

$$




USA.gov is the U.S. government's official web portal to all federal, state and local government web resources and services.